Starlink 30936

operational
NORAD ID: 58534 Int'l Des: 2023-192 Owner: SPXS Country: US Constellation: starlink
LEOCIRCULAR

About Starlink 30936

Description loading...

Live Position

Loading 3D Globe...

Upcoming Passes

Altitude History

Altitude vs Time

uPlot chart will show altitude changes over time

Two-Line Element Set

1 58534U 23192D 26101.85328601 .00000241 00000-0 20258-4 0 9993
2 58534 53.1612 258.7288 0001158 81.9364 278.1768 15.30188979131208
Epoch: Apr 11, 2026 • Age: 21 hours

Current Status

Altitude 476.2 km
Velocity 7.63 km/s
Sub-Earth Point 28.71°N, 177.33°W
Launch Date Dec 8, 2023
Age 2.3 years
Type internet

Technical Details

Classification Payload
Mass 730.00 kg
Dry Mass 700.00 kg
Total Mass 730.00 kg
Length 0.30 m
Diameter 4.10 m
Span 29.00 m
Shape Box + pan
Manufacturer SPXS
Bus Type Starlink V2M
Phase Status In Orbit
Owner/State SPXS/US

Large Constellations

Loading constellations...